Temp
61 61 61 60 60 60 59 59 59 59 59 59 59 59 60 60 60 61 61 61 60 60 61 61 62 63 61 68 79 84 81 80 81 83 82 81 78 76 72 75 79 76 80 82 84 81 83
60 60 60 60 60 59 59 59 59 59 59 59 59 59 59 59 60 60 60 60 60 60 61 61 62 63 64 67 88 85 84 82 83 81 81 81 81 82 76 76 74 81 82 82 82 84 84
60 60 60 60 59 59 59 59 59 59 59 59 59 59 59 59 59 59 59 59 59 60 61 62 63 67 67 77 88 84 80 80 83 82 81 86 84 80 77 75 80 79 74 79 79 78 79
60 60 59 60 59 59 58 58 59 58 58 58 58 58 58 58 58 59 58 58 59 61 62 63 64 63 67 86 83 85 79 84 83 82 83 87 84 79 75 80 77 72 68 65 79 79 81
60 59 60 59 59 58 58 58 58 58 58 57 57 57 57 57 57 57 57 57 60 63 64 65 60 63 70 85 82 85 84 84 85 85 83 95 83 72 76 67 64 64 60 64 71 79 79
59 59 59 59 59 58 58 57 57 57 57 57 57 57 57 57 57 56 56 58 61 62 65 71 75 64 75 80 86 87 86 86 83 82 82 79 70 65 63 63 56 60 61 64 66 76 76
59 59 59 59 58 57 57 57 57 57 57 57 57 57 56 56 56 56 53 62 68 66 65 67 68 72 78 86 88 85 89 85 81 78 65 70 65 59 64 67 70 68 65 64 71 78 74
58 58 58 58 57 57 57 57 57 57 57 57 56 56 56 56 55 55 50 64 65 63 61 74 75 76 81 83 77 83 90 77 74 66 68 66 60 70 73 73 71 68 65 66 71 76 71
57 58 57 57 57 57 57 56 56 56 56 56 56 56 55 55 55 56 58 64 69 62 58 68 74 74 77 80 77 79 85 80 72 67 67 62 70 78 76 72 71 65 62 65 66 71 71
57 57 57 57 57 57 56 56 56 56 56 56 56 55 55 53 58 54 62 68 66 65 52 63 67 76 79 82 75 88 87 83 74 70 70 68 75 76 74 73 72 60 73 72 69 63 58
58 57 57 57 57 56 56 56 56 56 56 55 55 55 54 54 48 57 67 63 65 68 44 71 69 83 73 77 76 79 86 80 72 72 69 67 70 73 72 75 76 70 74 69 68 60 55
57 57 57 57 56 56 56 55 55 55 55 55 55 54 54 51 47 56 60 61 67 53 45 66 74 70 69 70 75 79 79 82 80 72 70 71 78 77 77 79 77 75 69 63 56 53 49
57 57 56 56 56 56 55 55 55 55 55 55 54 53 51 54 58 57 59 63 51 44 65 65 62 64 64 66 70 73 71 68 65 58 57 68 71 77 81 70 72 68 57 47 48 47 48
56 57 56 56 56 55 55 55 55 55 54 54 53 52 51 52 50 57 60 57 42 58 58 67 67 63 65 66 66 70 67 64 68 67 60 56 58 72 76 71 67 61 59 49 42 43 49
56 56 56 56 55 55 55 55 55 54 54 53 52 47 47 53 54 55 57 45 49 56 67 66 65 59 58 66 67 66 64 65 70 69 61 55 60 74 77 78 75 62 57 60 50 44 47
56 56 56 56 55 55 55 55 55 54 53 52 44 47 52 59 57 57 52 46 52 63 68 65 56 60 55 61 63 62 61 69 69 73 71 64 57 66 77 75 73 69 68 56 50 44 41
56 56 55 55 55 55 55 55 54 54 53 51 47 53 61 59 59 54 46 47 56 66 69 61 57 59 61 60 62 58 62 70 74 72 69 61 58 63 70 63 65 64 58 54 52 49 45
56 55 55 55 55 55 55 54 54 53 52 46 45 50 61 61 51 41 46 52 59 63 65 64 62 62 62 63 59 59 62 70 75 72 66 65 57 53 62 69 71 66 60 56 51 49 46
56 55 55 55 55 55 55 54 54 53 52 44 44 45 60 62 45 43 48 57 61 60 62 61 62 65 65 61 56 63 65 74 73 72 66 65 54 50 57 62 66 65 62 56 51 49 47
55 55 55 55 55 55 55 54 54 53 52 43 46 49 53 53 48 49 46 51 56 67 65 66 64 63 61 59 61 59 65 73 74 69 67 66 52 56 54 57 61 60 64 63 56 49 49
55 55 55 55 55 55 55 55 54 53 52 47 47 47 49 46 50 50 49 52 53 55 63 64 57 62 59 51 56 56 61 65 71 67 64 62 55 54 57 65 66 64 64 65 58 56 54
55 55 55 55 55 55 55 55 54 53 52 47 46 46 50 46 48 50 49 50 55 58 57 60 57 62 59 54 56 53 56 57 56 65 59 58 55 55 55 65 66 64 67 66 64 62 59
55 55 55 55 55 55 56 55 54 52 48 43 45 49 49 47 46 46 49 53 56 59 63 65 63 59 59 61 64 61 59 59 56 54 58 56 54 52 50 59 62 56 61 61 60 58 55
55 54 54 55 55 55 55 55 55 53 50 41 41 43 46 46 47 49 55 60 59 58 59 66 63 56 64 67 64 60 57 58 65 61 58 56 52 50 48 52 45 59 65 66 59 59 59
55 54 54 54 55 54 55 55 55 54 52 40 41 43 43 41 48 52 54 55 59 56 59 63 64 62 60 62 56 53 54 59 62 63 60 57 51 46 47 44 53 58 64 63 59 56 60
54 54 54 54 54 54 55 55 55 54 52 41 41 43 42 41 47 54 52 53 47 49 53 60 65 61 60 53 52 43 45 51 53 59 57 55 53 51 45 44 44 56 66 67 65 52 61
54 54 54 54 54 54 54 55 55 55 53 44 41 43 43 40 45 50 50 50 51 48 46 52 57 57 59 51 48 45 47 55 51 50 47 47 46 47 44 44 51 60 66 67 51 53 61
54 54 54 54 54 54 54 54 55 54 54 47 42 43 43 39 43 51 57 52 52 48 44 51 54 55 53 49 49 47 47 50 47 50 48 50 45 44 42 42 45 62 63 58 57 57 60
54 54 53 53 53 54 54 54 54 54 54 50 38 45 46 41 45 51 57 60 59 58 51 48 50 48 52 50 47 46 48 47 44 45 52 49 52 48 49 48 54 57 57 58 58 61 62
MSLP
1021.96 1021.69 1021.51 1021.28 1021.01 1020.64 1020.26 1020.06 1019.58 1019.18 1018.78 1018.38 1017.93 1017.50 1016.97 1016.48 1015.94 1015.36 1014.74 1014.19 1013.71 1013.30 1013.05 1012.62 1011.99 1011.74 1011.16 1010.15 1007.60 1006.05 1006.13 1006.26 1006.46 1006.44 1006.44 1006.31 1006.23 1006.18 1006.26 1006.52 1006.24 1005.94 1005.26 1004.87 1004.19 1004.61 1004.35
1022.31 1021.98 1021.68 1021.45 1021.15 1020.79 1020.46 1020.19 1019.75 1019.38 1018.96 1018.58 1018.02 1017.40 1016.90 1016.50 1015.78 1015.11 1014.48 1013.92 1013.44 1013.10 1012.87 1012.45 1012.01 1011.70 1011.17 1009.04 1006.14 1005.96 1006.14 1006.27 1006.40 1006.44 1006.27 1006.24 1006.15 1005.92 1006.14 1006.22 1006.14 1005.49 1005.11 1004.86 1003.97 1003.81 1003.97
1022.78 1022.45 1022.08 1021.82 1021.52 1021.25 1020.81 1020.52 1020.01 1019.47 1018.96 1018.44 1017.93 1017.39 1016.88 1016.25 1015.56 1014.83 1014.20 1013.55 1012.92 1012.57 1012.50 1012.12 1011.94 1011.69 1010.57 1007.53 1006.18 1006.14 1006.18 1006.01 1006.01 1006.24 1006.21 1005.78 1005.79 1005.98 1006.14 1006.30 1006.03 1005.70 1005.47 1004.57 1004.12 1004.13 1004.01
1023.04 1022.72 1022.36 1022.02 1021.76 1021.51 1021.07 1020.72 1020.17 1019.55 1018.94 1018.39 1017.94 1017.40 1016.73 1015.94 1015.38 1014.62 1013.76 1012.96 1012.28 1011.95 1011.69 1011.61 1011.72 1011.43 1009.41 1006.48 1006.21 1006.22 1006.28 1005.87 1005.79 1005.91 1005.95 1005.48 1005.41 1005.86 1006.34 1006.37 1006.24 1006.40 1006.04 1005.80 1004.26 1004.11 1003.73
1023.16 1022.87 1022.53 1022.15 1021.89 1021.53 1021.17 1020.76 1020.25 1019.58 1019.10 1018.60 1017.85 1017.17 1016.58 1015.84 1015.05 1014.28 1013.36 1012.39 1011.64 1011.21 1011.24 1011.43 1011.55 1010.91 1008.48 1006.39 1006.33 1005.90 1006.00 1006.01 1005.72 1005.46 1005.46 1005.43 1005.51 1006.61 1006.79 1007.31 1007.54 1007.68 1007.15 1006.49 1005.29 1003.87 1004.03
1023.36 1023.00 1022.60 1022.28 1021.99 1021.68 1021.19 1020.69 1020.06 1019.54 1019.09 1018.41 1017.70 1017.09 1016.38 1015.69 1014.99 1014.05 1012.93 1011.62 1010.95 1011.09 1011.17 1011.19 1010.88 1010.55 1007.90 1006.39 1005.76 1005.51 1005.56 1005.91 1006.02 1005.99 1005.89 1006.04 1007.15 1007.69 1008.22 1008.30 1008.86 1008.32 1007.75 1006.80 1006.02 1004.42 1004.09
1023.43 1023.08 1022.71 1022.40 1022.08 1021.74 1021.24 1020.77 1020.37 1019.63 1019.05 1018.34 1017.76 1017.06 1016.36 1015.71 1014.95 1014.13 1013.06 1011.52 1011.59 1011.32 1010.77 1010.35 1009.84 1009.00 1007.47 1006.36 1005.37 1005.31 1005.34 1005.90 1006.04 1006.53 1007.00 1007.28 1007.97 1008.28 1008.29 1008.28 1007.98 1007.81 1007.46 1007.00 1005.64 1004.61 1004.45
1023.65 1023.20 1022.88 1022.55 1022.20 1021.79 1021.30 1020.76 1020.15 1019.50 1018.97 1018.38 1017.84 1017.23 1016.42 1015.54 1014.68 1014.15 1014.05 1013.27 1012.96 1013.14 1011.50 1009.21 1008.67 1008.12 1006.90 1006.70 1006.33 1005.37 1005.24 1006.00 1006.34 1007.00 1007.35 1008.02 1008.02 1007.56 1007.75 1007.70 1007.68 1007.45 1007.16 1006.47 1005.73 1004.95 1004.97
1023.87 1023.46 1023.12 1022.81 1022.42 1021.94 1021.40 1020.85 1020.20 1019.62 1019.08 1018.56 1018.03 1017.27 1016.51 1015.40 1014.47 1014.15 1014.03 1012.82 1012.22 1012.13 1011.71 1008.84 1007.63 1006.95 1006.16 1006.35 1006.09 1005.43 1005.39 1005.75 1006.44 1007.04 1007.55 1007.95 1007.15 1006.88 1007.12 1006.88 1007.13 1006.86 1006.75 1006.51 1006.52 1005.88 1005.92
1024.02 1023.65 1023.34 1023.01 1022.57 1022.10 1021.55 1020.96 1020.24 1019.69 1019.06 1018.47 1017.87 1017.23 1016.63 1015.25 1014.61 1014.80 1013.46 1012.19 1011.71 1011.54 1011.48 1008.49 1006.89 1005.26 1005.33 1005.46 1005.40 1004.71 1004.86 1005.52 1006.35 1006.77 1007.32 1007.43 1006.60 1006.59 1006.32 1006.27 1006.27 1006.50 1006.39 1006.60 1006.97 1007.32 1007.72
1024.15 1023.88 1023.48 1023.08 1022.71 1022.20 1021.61 1021.00 1020.35 1019.67 1018.92 1018.22 1017.65 1017.17 1016.76 1016.47 1016.01 1014.84 1013.10 1012.06 1011.41 1011.37 1010.93 1007.20 1005.82 1004.37 1004.58 1005.02 1004.84 1004.57 1004.53 1005.16 1006.01 1006.52 1006.95 1006.83 1006.36 1006.07 1005.91 1005.46 1005.51 1006.17 1006.23 1007.28 1007.74 1008.52 1009.04
1024.34 1023.98 1023.65 1023.30 1022.75 1022.15 1021.55 1020.96 1020.25 1019.47 1018.71 1017.97 1017.29 1017.01 1016.65 1016.24 1015.99 1013.83 1012.89 1012.15 1011.63 1012.05 1009.76 1006.72 1005.15 1004.78 1005.11 1004.94 1004.79 1004.62 1004.74 1005.02 1005.53 1006.46 1006.71 1006.50 1005.90 1005.76 1005.09 1004.73 1005.16 1005.92 1007.06 1008.27 1009.29 1010.06 1010.99
1024.55 1024.14 1023.76 1023.22 1022.72 1022.15 1021.56 1020.87 1020.02 1019.20 1018.34 1017.46 1016.63 1016.26 1016.43 1015.98 1014.49 1013.36 1012.86 1012.55 1013.05 1012.11 1009.11 1007.29 1006.00 1005.46 1005.13 1005.09 1005.19 1005.16 1005.39 1005.80 1006.24 1006.91 1007.15 1006.61 1005.90 1005.11 1004.66 1004.93 1005.50 1006.51 1008.47 1010.17 1011.40 1012.09 1011.76
1024.79 1024.31 1023.85 1023.37 1022.90 1022.28 1021.57 1020.73 1019.86 1018.95 1018.00 1016.92 1015.85 1015.18 1014.95 1014.57 1013.78 1013.52 1013.41 1013.70 1013.10 1010.96 1009.36 1007.53 1006.56 1005.84 1005.80 1005.69 1005.63 1005.72 1006.07 1006.53 1006.59 1006.87 1007.45 1007.25 1006.34 1005.10 1004.81 1005.04 1005.82 1007.17 1008.59 1010.54 1012.05 1013.14 1012.41
1024.91 1024.48 1024.05 1023.55 1023.01 1022.34 1021.63 1020.82 1019.87 1018.81 1017.69 1016.48 1015.20 1014.87 1014.80 1013.05 1013.46 1014.04 1014.16 1014.18 1012.48 1010.88 1009.21 1008.19 1006.98 1006.38 1006.02 1005.70 1005.78 1006.04 1006.36 1006.51 1006.38 1006.59 1007.37 1007.49 1006.68 1005.38 1004.84 1005.00 1005.67 1007.31 1008.77 1009.83 1011.53 1013.18 1013.21
1024.93 1024.58 1024.08 1023.68 1023.12 1022.42 1021.60 1020.67 1019.68 1018.54 1017.29 1016.27 1015.79 1015.23 1014.00 1012.57 1013.17 1013.94 1014.32 1013.91 1012.28 1010.62 1009.19 1008.34 1007.78 1006.90 1006.55 1006.07 1006.08 1006.30 1006.37 1005.77 1006.07 1006.16 1006.26 1007.28 1007.08 1005.99 1004.94 1004.98 1005.71 1006.39 1008.00 1009.93 1011.72 1013.20 1013.57
1025.04 1024.63 1024.21 1023.70 1023.15 1022.47 1021.64 1020.74 1019.78 1018.59 1017.15 1016.01 1015.88 1015.05 1013.05 1012.79 1013.21 1014.19 1014.67 1013.64 1011.92 1010.28 1009.19 1008.61 1008.01 1007.39 1006.70 1006.28 1006.05 1006.17 1006.21 1005.51 1005.30 1005.71 1006.44 1007.24 1007.60 1006.90 1006.00 1005.81 1005.91 1007.02 1008.13 1010.01 1011.69 1012.84 1013.48
1025.03 1024.65 1024.24 1023.74 1023.14 1022.51 1021.77 1020.87 1019.96 1018.93 1017.46 1016.39 1016.44 1015.46 1013.46 1013.35 1014.12 1015.17 1014.70 1013.19 1011.67 1010.46 1009.50 1008.84 1008.24 1007.72 1006.95 1006.31 1006.09 1006.09 1005.89 1005.17 1004.44 1005.11 1006.68 1007.09 1007.88 1008.07 1007.32 1006.23 1006.33 1006.61 1008.05 1009.60 1011.74 1012.98 1013.41
1025.08 1024.65 1024.15 1023.65 1023.21 1022.53 1021.76 1020.92 1020.10 1019.25 1018.60 1018.40 1017.63 1016.20 1013.76 1013.46 1014.72 1015.27 1014.27 1013.06 1011.79 1010.65 1009.70 1009.01 1008.35 1007.62 1006.93 1006.54 1006.51 1006.12 1005.45 1004.70 1004.58 1005.13 1005.67 1006.92 1008.00 1008.64 1007.97 1007.35 1006.76 1007.17 1007.87 1009.31 1010.80 1011.72 1012.90
1024.99 1024.65 1024.32 1023.94 1023.45 1022.72 1021.95 1020.98 1020.15 1019.03 1018.04 1018.29 1017.87 1016.84 1015.44 1014.75 1014.97 1014.86 1014.41 1013.16 1011.74 1010.13 1009.60 1008.82 1008.23 1007.72 1007.41 1006.94 1006.88 1006.63 1005.84 1005.00 1004.97 1005.27 1005.57 1006.07 1008.15 1008.32 1008.19 1007.71 1007.38 1007.51 1007.94 1008.78 1010.09 1011.58 1012.44
1025.12 1024.92 1024.56 1024.16 1023.50 1022.70 1021.80 1021.12 1020.20 1019.10 1018.20 1018.31 1018.09 1017.70 1016.97 1016.13 1015.49 1014.96 1014.41 1013.32 1012.05 1010.96 1009.47 1008.58 1008.33 1008.13 1007.63 1007.80 1007.74 1007.49 1006.79 1006.07 1005.53 1005.91 1006.32 1006.91 1008.24 1008.39 1008.00 1007.39 1007.17 1007.31 1007.80 1008.69 1009.58 1010.49 1011.17
1025.16 1024.84 1024.49 1023.96 1023.41 1022.76 1022.05 1021.42 1020.54 1019.47 1018.50 1018.59 1018.73 1018.37 1017.37 1016.67 1015.88 1015.28 1014.34 1013.30 1012.17 1011.02 1010.21 1008.95 1008.57 1008.30 1007.96 1008.20 1008.19 1008.01 1007.66 1007.24 1007.12 1006.85 1007.30 1007.81 1008.90 1008.92 1008.90 1008.14 1007.54 1007.64 1007.83 1008.28 1009.24 1010.12 1010.64
1025.01 1024.76 1024.47 1023.94 1023.41 1022.88 1022.23 1021.72 1021.07 1020.30 1019.36 1019.56 1019.24 1018.67 1018.17 1017.21 1016.49 1015.57 1014.72 1013.66 1012.00 1011.16 1009.80 1009.16 1008.89 1008.53 1008.44 1008.27 1008.16 1008.06 1007.93 1007.78 1007.74 1008.05 1008.41 1008.66 1009.25 1010.03 1009.97 1009.17 1008.52 1008.48 1008.39 1008.64 1009.73 1010.78 1011.18
1024.85 1024.72 1024.36 1023.90 1023.48 1023.01 1022.52 1022.07 1021.54 1021.17 1021.14 1021.44 1020.46 1019.92 1019.00 1018.08 1017.02 1016.02 1014.75 1013.59 1012.48 1011.35 1010.39 1009.51 1008.98 1009.02 1008.65 1008.32 1008.27 1008.24 1008.27 1008.17 1007.89 1008.25 1008.65 1009.37 1009.99 1010.61 1011.05 1010.03 1009.92 1009.54 1008.59 1008.85 1010.06 1011.18 1011.30
1024.75 1024.57 1024.29 1023.92 1023.51 1023.12 1022.81 1022.37 1021.87 1021.52 1021.19 1021.31 1020.71 1020.38 1019.86 1018.86 1017.59 1016.08 1015.02 1014.01 1012.59 1011.44 1010.99 1010.34 1009.87 1009.80 1009.34 1009.34 1009.90 1010.07 1009.84 1009.14 1008.81 1008.92 1009.26 1009.56 1010.56 1011.91 1012.26 1012.01 1011.23 1010.35 1009.48 1009.18 1009.84 1011.41 1011.75
1024.56 1024.39 1024.21 1023.83 1023.57 1023.22 1022.91 1022.48 1022.10 1021.74 1021.27 1021.09 1020.78 1020.50 1020.16 1019.56 1017.80 1016.73 1015.64 1014.80 1014.38 1013.59 1012.43 1011.24 1010.48 1009.87 1009.83 1010.89 1011.33 1011.78 1011.48 1010.68 1010.08 1009.77 1009.93 1010.52 1010.87 1012.00 1013.19 1012.90 1011.98 1010.15 1009.38 1009.35 1009.72 1011.14 1011.66
1024.36 1024.28 1024.13 1023.86 1023.63 1023.33 1022.97 1022.62 1022.25 1021.92 1021.49 1021.33 1020.96 1020.56 1020.36 1020.02 1017.92 1016.92 1016.08 1015.56 1015.09 1014.66 1014.29 1013.23 1012.49 1011.46 1010.83 1012.03 1012.83 1013.06 1012.48 1011.58 1011.16 1010.96 1011.48 1011.86 1012.54 1013.21 1013.74 1013.35 1012.11 1010.57 1010.11 1009.89 1010.60 1011.56 1011.33
1024.18 1024.16 1024.04 1023.84 1023.61 1023.34 1023.04 1022.78 1022.42 1022.12 1021.69 1021.46 1021.12 1020.69 1020.69 1020.38 1018.44 1017.02 1016.08 1015.70 1015.44 1015.25 1015.20 1014.25 1013.67 1012.95 1012.88 1013.59 1013.99 1014.00 1013.37 1012.63 1012.20 1011.68 1011.66 1012.31 1013.21 1013.97 1014.41 1014.05 1012.83 1011.40 1010.70 1010.58 1011.21 1011.20 1011.60
1023.92 1023.97 1023.92 1023.80 1023.61 1023.34 1023.09 1022.89 1022.60 1022.31 1021.96 1021.61 1021.64 1020.86 1020.77 1020.64 1018.70 1017.09 1015.92 1015.37 1015.35 1014.97 1015.09 1014.92 1015.05 1014.80 1014.63 1014.63 1014.91 1014.68 1014.33 1013.82 1013.66 1013.23 1012.53 1012.88 1012.89 1013.51 1014.16 1013.60 1012.96 1012.56 1011.96 1011.27 1011.18 1011.25 1011.48
Wind_Speed
14 15 15 16 16 16 17 17 17 17 17 18 18 18 18 19 19 20 20 20 18 17 16 15 15 13 3 3 6 3 5 4 3 1 1 2 3 2 2 3 4 5 6 7 12 4 7
15 15 15 16 16 17 17 18 18 18 17 18 19 19 20 20 20 21 20 20 19 17 15 14 13 11 3 3 1 6 5 4 2 2 1 3 2 3 1 4 1 5 8 7 4 3 2
13 14 14 15 16 17 17 18 18 18 19 19 19 20 21 21 22 22 22 21 20 19 14 12 9 3 1 11 4 4 4 2 3 3 3 3 1 3 1 5 1 4 4 6 3 0 1
13 14 15 15 15 16 17 18 18 19 20 20 20 21 22 22 23 23 23 23 23 21 13 8 4 1 7 4 1 1 1 6 3 5 4 7 2 3 2 4 7 4 6 5 8 3 5
14 14 15 16 16 17 17 18 18 19 20 20 21 22 23 24 24 23 24 26 24 11 3 4 2 1 9 4 2 6 5 3 4 5 3 3 5 3 6 4 7 8 2 4 10 4 4
14 15 16 17 17 18 18 19 19 20 21 21 22 23 23 23 24 24 27 24 9 6 2 4 2 3 5 1 4 4 6 2 3 5 6 5 6 4 4 6 3 4 4 5 6 5 2
17 17 17 18 18 18 19 19 19 20 21 22 23 23 23 23 23 22 16 6 7 5 3 5 3 4 5 7 3 4 5 4 2 7 2 4 6 3 5 5 4 3 4 6 6 5 5
16 16 17 17 18 18 19 20 21 21 22 22 23 23 24 24 23 22 2 4 4 1 10 7 9 7 7 3 4 3 5 4 2 2 2 7 4 9 4 5 6 6 5 6 6 3 0
15 16 17 17 18 19 20 21 21 22 22 22 22 22 24 26 26 3 2 3 5 3 2 10 6 6 6 9 8 7 9 5 3 3 3 5 7 3 3 4 4 4 3 3 5 6 6
15 16 16 17 17 19 20 21 21 22 22 22 22 21 22 28 3 5 5 8 9 3 6 10 5 10 6 6 5 8 7 6 2 6 6 6 6 4 5 6 7 3 5 2 2 4 2
15 16 16 17 19 19 20 21 21 22 22 22 21 20 18 11 5 3 6 11 8 5 3 3 4 1 2 11 3 3 5 4 7 4 6 7 2 7 4 7 5 8 3 2 3 4 2
16 16 17 18 19 20 21 22 22 23 22 22 21 18 17 2 1 8 9 10 4 7 7 7 4 4 5 2 2 3 4 4 3 3 3 7 3 5 7 4 4 3 4 7 5 4 4
16 17 18 19 20 22 22 22 22 23 24 24 23 18 7 2 4 5 6 5 6 4 5 6 1 1 3 6 4 3 5 4 6 4 2 6 4 5 4 1 3 7 8 5 6 7 6
15 17 18 19 20 21 21 22 23 24 25 26 25 19 4 6 3 5 4 6 4 5 6 6 4 0 6 3 3 5 5 4 2 4 3 3 7 2 1 4 6 3 8 8 4 3 6
15 16 17 19 20 20 21 22 23 25 26 27 20 2 1 5 9 2 6 3 9 6 4 6 8 0 3 4 2 4 7 8 9 8 8 5 6 3 3 5 8 3 2 4 8 3 3
15 16 17 18 19 20 21 22 24 26 28 25 3 3 4 2 7 5 6 7 5 4 5 4 2 1 1 5 7 7 8 6 6 10 6 6 2 3 6 4 4 8 8 3 4 2 2
14 16 17 18 20 21 22 23 24 27 29 18 3 3 3 4 3 6 4 7 4 6 4 1 2 4 4 2 7 7 7 5 9 7 6 5 4 7 4 1 7 2 2 8 6 5 6
14 15 16 18 19 21 22 23 24 25 28 9 3 3 3 3 5 1 2 5 4 4 4 4 2 5 4 2 2 1 7 9 6 10 11 8 6 4 10 1 3 3 4 6 7 4 2
13 15 17 18 19 20 22 23 24 23 19 3 2 3 4 5 2 2 5 5 3 3 5 3 3 2 4 3 1 3 2 3 3 9 11 9 1 2 10 8 4 7 3 6 5 3 3
13 16 17 18 19 20 21 23 25 26 22 5 2 3 5 4 1 5 1 5 4 4 6 6 6 3 4 3 4 2 6 3 6 4 9 10 5 8 9 8 4 4 4 4 5 4 4
12 14 15 16 18 20 21 23 25 28 21 2 3 1 2 3 3 2 4 3 3 5 4 6 2 4 4 1 3 5 5 7 5 7 4 6 5 3 3 5 4 3 3 4 4 5 5
10 13 15 17 18 20 20 22 25 28 17 3 2 3 5 2 4 4 5 4 7 7 5 4 3 3 4 5 5 2 2 5 1 7 4 3 2 3 3 3 4 3 4 4 4 2 1
9 12 14 16 17 19 19 21 22 24 14 3 3 2 2 3 5 3 1 4 7 4 3 3 3 5 5 5 6 5 2 2 1 1 3 3 6 4 3 2 4 5 2 3 5 4 2
8 10 12 15 17 18 20 20 20 20 15 2 2 1 2 3 2 2 5 7 7 5 3 4 6 4 5 4 2 3 3 2 7 6 1 3 4 3 3 3 3 5 4 8 11 2 2
9 9 11 14 15 17 17 19 20 19 19 1 2 2 2 1 3 5 9 8 6 7 4 3 6 2 4 6 5 6 7 6 4 4 5 4 5 5 5 3 3 3 4 3 4 2 5
8 9 10 13 14 16 17 18 19 18 19 2 2 1 2 3 3 4 4 4 4 5 8 5 5 6 5 4 4 4 4 4 3 3 4 7 7 7 3 5 6 6 1 2 4 5 9
7 8 9 11 11 14 16 17 18 19 19 3 3 2 3 0 5 2 2 2 3 3 3 4 8 9 3 3 4 2 2 2 2 3 2 3 4 5 3 3 7 6 5 3 3 10 5
7 7 8 10 10 12 14 16 17 18 20 8 4 2 3 1 7 3 2 1 5 3 2 6 2 5 5 5 3 1 2 2 1 2 1 3 4 2 4 4 6 3 5 3 7 1 3
8 7 7 7 9 11 13 14 16 17 18 13 3 3 1 3 7 4 9 10 8 8 2 4 2 1 1 3 2 2 2 3 1 2 4 1 4 4 5 6 3 4 4 2 3 4 4
Wind_Direction
36 35 31 26 20 16 13 7 7 4 360 354 350 345 342 338 334 333 331 327 323 318 316 315 317 323 336 337 256 157 164 127 137 104 32 21 38 82 11 282 312 201 260 269 247 176 244
30 32 29 21 17 13 10 4 2 359 356 351 347 343 340 336 334 332 328 322 314 308 308 310 310 317 347 301 262 160 163 141 163 145 222 164 257 255 158 278 326 300 279 279 271 279 167
31 31 27 20 15 10 7 1 358 355 352 349 345 341 338 335 334 331 324 315 310 305 302 298 298 304 30 239 347 173 176 222 180 181 305 227 284 61 318 317 298 281 289 334 299 325 62
29 26 23 18 13 7 5 359 356 353 350 347 342 339 336 336 331 327 320 312 310 304 297 272 246 220 249 258 106 153 182 296 227 236 210 261 229 118 171 300 358 25 43 6 288 17 282
27 23 21 17 11 5 1 358 354 353 348 344 341 338 336 334 329 326 318 312 307 305 215 158 136 102 272 303 188 228 188 253 323 313 297 300 55 57 19 57 9 7 322 311 309 231 175
24 20 18 11 9 3 360 357 354 350 346 344 341 336 334 333 326 324 321 305 291 303 157 188 250 15 274 226 237 199 204 235 278 325 8 39 52 53 39 64 211 276 328 287 264 303 53
19 17 12 7 4 1 358 355 351 349 346 344 340 334 332 329 325 326 341 1 14 351 37 224 212 267 271 302 253 221 159 153 116 52 64 357 51 233 225 208 214 264 230 242 259 291 204
18 15 11 7 4 359 355 353 350 348 344 343 338 333 330 326 323 323 304 56 67 260 305 248 241 254 256 100 321 285 111 144 113 201 74 15 251 241 227 222 239 239 254 297 291 333 291
17 13 9 5 1 358 354 351 348 345 341 339 335 333 329 324 318 330 304 246 331 320 196 292 218 214 215 139 207 243 144 163 149 163 170 166 240 348 199 285 293 233 221 274 228 345 13
14 10 6 3 359 355 352 349 347 342 338 334 332 333 332 325 10 330 284 308 320 225 44 275 246 258 177 145 269 207 180 142 188 209 183 222 273 264 241 246 160 276 191 227 57 72 259
14 10 5 1 357 353 351 347 344 339 333 329 328 330 331 331 295 313 305 322 311 58 343 251 219 335 235 150 202 215 187 79 187 199 90 253 310 359 314 222 149 224 133 31 99 98 52
10 9 5 360 356 352 349 345 340 336 331 325 323 324 329 117 235 246 309 308 45 47 252 318 184 165 112 163 264 54 111 98 160 171 228 238 262 231 219 254 171 95 79 44 55 62 34
6 4 2 0 356 353 347 343 339 335 330 324 320 314 297 289 230 324 315 40 52 149 327 299 332 34 202 174 210 148 139 162 168 131 308 329 263 270 215 328 32 75 53 359 1 9 217
1 1 360 359 355 352 346 342 339 335 330 326 320 313 212 215 281 341 39 54 156 231 255 298 316 351 177 147 244 157 139 203 267 98 92 119 323 197 23 167 185 86 137 149 190 217 265
1 360 356 355 353 348 344 341 339 336 333 331 320 340 239 256 194 42 75 90 206 212 296 348 328 5 241 230 158 143 187 199 203 162 166 158 267 314 260 192 135 185 106 179 102 22 46
0 357 356 358 354 349 344 345 342 339 336 335 334 347 269 112 150 78 81 223 231 230 327 21 18 341 318 270 158 154 180 211 214 183 161 202 293 255 295 96 58 151 157 73 21 163 264
360 359 1 358 356 350 350 347 344 342 339 331 22 34 278 156 90 50 165 230 279 261 334 1 274 289 270 276 188 181 199 273 202 179 127 134 107 282 18 309 167 63 68 49 112 122 157
1 3 1 359 357 351 352 349 347 347 344 31 355 56 329 24 60 23 178 212 284 304 355 308 253 238 256 293 315 166 211 221 203 151 160 198 150 225 235 284 291 127 139 125 119 236 100
360 0 1 360 358 354 353 350 348 349 355 331 53 272 327 79 125 295 292 286 264 271 243 259 285 274 291 277 251 233 233 255 354 161 167 174 242 327 341 354 4 83 75 109 118 84 177
360 359 359 358 357 357 355 352 350 349 347 122 70 56 332 51 135 146 357 273 252 248 242 207 240 282 273 350 30 306 335 350 353 70 74 98 117 163 198 201 183 126 90 72 107 98 181
356 353 355 356 1 360 2 356 355 354 355 22 27 331 172 306 313 278 183 269 305 312 272 196 245 228 220 36 15 359 320 345 348 14 71 106 123 150 147 164 143 117 98 154 157 170 140
346 350 352 358 2 2 4 1 0 358 355 51 67 27 355 280 309 308 170 266 226 260 228 294 204 161 133 144 194 167 292 20 346 333 45 350 135 112 43 77 115 123 34 89 89 110 173
342 347 348 356 2 4 6 5 6 7 7 35 321 335 114 291 342 31 253 285 274 323 229 220 228 115 115 190 189 227 218 136 25 339 27 44 118 93 176 315 111 25 13 102 94 51 135
342 340 346 352 360 4 3 6 8 10 22 233 272 36 54 290 13 296 304 330 290 271 255 307 84 99 256 340 316 52 30 11 61 30 125 115 83 78 136 42 61 255 0 112 111 88 69
334 338 342 347 357 360 0 1 4 5 3 191 293 46 71 304 268 312 329 340 333 338 16 32 10 309 304 47 52 38 346 8 337 30 25 74 108 71 110 108 258 117 224 165 139 218 195
320 332 335 345 351 355 357 1 1 2 2 38 283 225 100 119 249 282 319 352 354 334 341 330 335 309 64 76 74 122 180 230 302 347 65 45 69 102 96 114 180 236 308 91 110 309 182
300 319 328 337 346 351 353 357 360 1 1 4 282 337 101 54 271 343 14 315 321 346 270 314 339 347 34 52 71 124 222 241 214 186 210 19 18 133 129 143 285 254 287 189 101 237 169
275 303 321 332 341 346 351 353 357 360 1 10 277 321 76 238 281 266 283 60 349 29 38 294 349 348 26 64 108 203 139 266 356 258 7 149 130 191 93 99 268 32 291 162 207 10 143
257 281 302 321 327 339 348 348 353 357 360 11 319 329 335 168 245 270 260 250 188 226 176 358 138 207 164 86 57 104 26 21 83 278 334 74 159 193 162 212 286 311 313 316 185 145 182